Terug naar catalogus

ORBCOMM FM 2

ActiefCommunicatieVLEO
NORAD 23546·PAYLOAD·🇺🇸 United States

Gelanceerd Apr 3, 1995 vanaf Vandenberg Space Force Base

Loading…

Volgende Passages (komende 24 uur)

TLE

VersSource: Space-Track

Epoch: Sep 14, 2026, 15:25 UTC

1 23546U 95017B   26257.64236795  .00007388  00000-0  60714-3 0  9993
2 23546  69.9630  30.6717 0005752 323.8686  36.2084 14.99526114680104

Volg ORBCOMM FM 2 in realtime met AllMySat

Download on the App Store